Weather History for KIXD - January, 2014

Change the Weather History Date:

Wednesday, January 8, 2014

  Actual Average Record
Temperature  
Mean Temperature 24 °F -  
Max Temperature 30 °F 36 °F 73 °F (2003)
Min Temperature 19 °F 19 °F 0 °F (2015)
Degree Days  
Heating Degree Days 40    
Moisture  
Dew Point 15 °F    
Average Humidity 67    
Maximum Humidity 78    
Minimum Humidity 54    
Precipitation  
Precipitation 0.00 in - - ()
Sea Level Pressure  
Sea Level Pressure 30.31 in    
Wind  
Wind Speed 7 mph (ENE)    
Max Wind Speed 12 mph    
Max Gust Speed -    
Visibility 10 miles    
Events Snow    
Averages and records for this station are not official NWS values.
T = Trace of Precipitation, MM = Missing Value Source: NWS Daily Summary

Daily Weather History Graph

Daily Weather History Graph

Search for Another Location

Airport or City:

Trip Planner

Search our weather history database for the weather conditions in past years. The results will help you decide how hot, cold, wet, or windy it might be!

Date:

Astronomy

Jan. 08, 2014 Rise Set
Actual Time 7:38 AM CST 5:14 PM CST
Civil Twilight 7:08 AM CST 5:44 PM CST
Nautical Twilight 6:35 AM CST 6:17 PM CST
Astronomical Twilight 6:03 AM CST 6:49 PM CST
Moon 12:06 PM CST (1/8) 12:46 AM CST (1/8)
Length of Visible Light 10h 35m
Length of Day
9h 36m
First Quarter, 56% of the Moon is Illuminated
Jan 8
First Quarter
Jan 15
Full
Jan 23
Last Quarter
Jan 30
New
Feb 6
First Quarter

Hourly Weather History & Observations

Time (CST) Temp. Windchill Dew Point Humidity Pressure Visibility Wind Dir Wind Speed Gust Speed Precip Events Conditions
12:53 AM 23.0 °F - 17.1 °F 78% 30.23 in 10.0 mi Calm Calm - N/A   Clear
1:53 AM 26.1 °F 19.4 °F 19.0 °F 75% 30.23 in 9.0 mi ENE 5.8 mph - 0.00 in Snow Light Snow
2:53 AM 26.1 °F 18.4 °F 19.0 °F 75% 30.25 in 10.0 mi ENE 6.9 mph - 0.00 in   Clear
3:53 AM 26.1 °F 17.6 °F 19.0 °F 75% 30.25 in 10.0 mi ENE 8.1 mph - N/A   Partly Cloudy
4:53 AM 26.1 °F 17.6 °F 19.9 °F 78% 30.25 in 10.0 mi ENE 8.1 mph - N/A   Partly Cloudy
5:53 AM 25.0 °F 17.1 °F 19.0 °F 78% 30.25 in 10.0 mi ENE 6.9 mph - N/A   Mostly Cloudy
6:53 AM 24.1 °F 15.2 °F 17.1 °F 75% 30.27 in 10.0 mi ENE 8.1 mph - N/A   Partly Cloudy
7:53 AM 23.0 °F 13.1 °F 15.1 °F 72% 30.30 in 10.0 mi ENE 9.2 mph - N/A   Mostly Cloudy
8:53 AM 23.0 °F 13.9 °F 12.9 °F 65% 30.32 in 10.0 mi ENE 8.1 mph - N/A   Clear
9:53 AM 25.0 °F 15.5 °F 14.0 °F 63% 30.35 in 10.0 mi ENE 9.2 mph - N/A   Clear
10:53 AM 27.0 °F 18.0 °F 14.0 °F 58% 30.35 in 10.0 mi ENE 9.2 mph - N/A   Clear
11:53 AM 28.0 °F 18.6 °F 15.1 °F 58% 30.34 in 10.0 mi East 10.4 mph - N/A   Partly Cloudy
12:53 PM 28.9 °F 19.8 °F 15.1 °F 56% 30.31 in 10.0 mi NE 10.4 mph - N/A   Partly Cloudy
1:53 PM 30.0 °F 21.1 °F 15.1 °F 54% 30.30 in 10.0 mi NE 10.4 mph - N/A   Partly Cloudy
2:53 PM 28.9 °F 19.2 °F 15.1 °F 56% 30.31 in 10.0 mi ENE 11.5 mph - N/A   Clear
3:53 PM 28.9 °F 19.2 °F 15.1 °F 56% 30.33 in 10.0 mi East 11.5 mph - N/A   Clear
4:53 PM 26.1 °F 16.8 °F 14.0 °F 60% 30.34 in 10.0 mi ENE 9.2 mph - N/A   Clear
5:53 PM 23.0 °F 11.7 °F 12.9 °F 65% 30.35 in 10.0 mi ENE 11.5 mph - N/A   Clear
6:53 PM 21.0 °F 9.3 °F 12.0 °F 68% 30.36 in 10.0 mi ENE 11.5 mph - N/A   Clear
7:53 PM 19.9 °F 8.6 °F 12.0 °F 71% 30.37 in 10.0 mi ENE 10.4 mph - N/A   Clear
8:53 PM 19.9 °F 11.1 °F 10.9 °F 68% 30.38 in 10.0 mi ENE 6.9 mph - N/A   Clear
9:53 PM 19.0 °F 9.0 °F 10.9 °F 71% 30.38 in 10.0 mi ENE 8.1 mph - N/A   Clear
10:53 PM 19.0 °F 7.5 °F 10.9 °F 71% 30.37 in 10.0 mi East 10.4 mph - N/A   Mostly Cloudy
11:53 PM 19.0 °F 8.2 °F 10.9 °F 71% 30.36 in 10.0 mi NE 9.2 mph - N/A   Overcast